Time,TemperatureF,DewpointF,PressureIn,WindDirection,WindDirectionDegrees,WindSpeedMPH,WindSpeedGustMPH,Humidity,HourlyPrecipIn,Conditions,Clouds,dailyrainin,SoftwareType,DateUTC
2013-07-20 00:02:00,71.0,70.0,30.26,West,281,13.0,15.0,96,0.00,,,0.00,,2013-07-20 04:02:00,
2013-07-20 00:44:00,70.0,69.0,30.25,WNW,289,17.0,18.0,97,0.00,,,0.00,,2013-07-20 04:44:00,
2013-07-20 00:52:00,70.0,69.0,30.24,WNW,297,17.0,19.0,97,0.00,,,0.00,,2013-07-20 04:52:00,
2013-07-20 01:12:00,70.0,69.0,30.24,WNW,283,20.0,22.0,96,0.00,,,0.00,,2013-07-20 05:12:00,
2013-07-20 01:22:00,70.0,69.0,30.24,NW,304,17.0,24.0,98,0.00,,,0.00,,2013-07-20 05:22:00,
2013-07-20 01:32:00,70.0,70.0,30.23,WNW,295,20.0,25.0,99,0.00,,,0.00,,2013-07-20 05:32:00,
2013-07-20 01:52:00,70.0,70.0,30.23,WNW,296,19.0,25.0,99,0.00,,,0.00,,2013-07-20 05:52:00,
2013-07-20 02:22:00,69.0,69.0,30.21,WNW,300,21.0,26.0,99,0.00,,,0.00,,2013-07-20 06:22:00,
2013-07-20 02:32:00,69.0,69.0,30.21,WNW,296,20.0,24.0,99,0.00,,,0.00,,2013-07-20 06:32:00,
2013-07-20 02:43:00,69.0,69.0,30.21,WNW,298,20.0,22.0,99,0.00,,,0.00,,2013-07-20 06:43:00,
2013-07-20 02:52:00,69.0,69.0,30.21,WNW,295,19.0,24.0,100,0.00,,,0.00,,2013-07-20 06:52:00,
2013-07-20 03:01:00,69.0,69.0,30.20,NW,304,22.0,26.0,99,0.00,,,0.00,,2013-07-20 07:01:00,
2013-07-20 03:12:00,69.0,69.0,30.20,WNW,300,21.0,26.0,100,0.00,,,0.00,,2013-07-20 07:12:00,
2013-07-20 03:22:00,68.0,68.0,30.20,WNW,296,25.0,28.0,99,0.00,,,0.00,,2013-07-20 07:22:00,
2013-07-20 03:33:00,68.0,68.0,30.20,WNW,297,24.0,29.0,100,0.00,,,0.00,,2013-07-20 07:33:00,
2013-07-20 03:44:00,68.0,68.0,30.20,WNW,298,24.0,29.0,100,0.00,,,0.00,,2013-07-20 07:44:00,
2013-07-20 03:53:00,68.0,68.0,30.19,NW,311,24.0,30.0,100,0.00,,,0.00,,2013-07-20 07:53:00,
2013-07-20 04:02:00,68.0,68.0,30.19,NW,304,20.0,27.0,100,0.00,,,0.00,,2013-07-20 08:02:00,
2013-07-20 04:11:00,68.0,68.0,30.20,NW,304,19.0,26.0,100,0.00,,,0.00,,2013-07-20 08:11:00,
2013-07-20 04:22:00,68.0,68.0,30.20,WNW,294,18.0,25.0,100,0.00,,,0.00,,2013-07-20 08:22:00,
2013-07-20 04:32:00,68.0,68.0,30.20,NW,319,19.0,24.0,100,0.00,,,0.00,,2013-07-20 08:32:00,
2013-07-20 04:44:00,68.0,68.0,30.20,WNW,300,19.0,23.0,100,0.00,,,0.00,,2013-07-20 08:44:00,
2013-07-20 04:52:00,68.0,68.0,30.20,NW,313,21.0,23.0,100,0.00,,,0.00,,2013-07-20 08:52:00,
2013-07-20 05:02:00,68.0,68.0,30.19,NW,316,22.0,25.0,100,0.00,,,0.00,,2013-07-20 09:02:00,
2013-07-20 05:11:00,68.0,68.0,30.19,NW,326,22.0,25.0,100,0.00,,,0.00,,2013-07-20 09:11:00,
2013-07-20 05:22:00,68.0,68.0,30.19,NW,313,22.0,26.0,100,0.00,,,0.00,,2013-07-20 09:22:00,
2013-07-20 05:33:00,68.0,68.0,30.19,West,281,23.0,26.0,100,0.00,,,0.00,,2013-07-20 09:33:00,
2013-07-20 05:43:00,68.0,68.0,30.19,NW,315,21.0,24.0,99,0.00,,,0.00,,2013-07-20 09:43:00,
2013-07-20 05:53:00,68.0,68.0,30.19,NW,321,23.0,25.0,99,0.00,,,0.00,,2013-07-20 09:53:00,
2013-07-20 06:01:00,69.0,68.0,30.19,NW,311,25.0,27.0,96,0.00,,,0.00,,2013-07-20 10:01:00,
2013-07-20 06:11:00,70.0,68.0,30.19,NW,315,25.0,27.0,93,0.00,,,0.00,,2013-07-20 10:11:00,
2013-07-20 06:22:00,70.0,67.0,30.19,NW,316,24.0,26.0,91,0.00,,,0.00,,2013-07-20 10:22:00,
2013-07-20 06:32:00,70.0,67.0,30.19,West,263,25.0,27.0,91,0.00,,,0.00,,2013-07-20 10:32:00,
2013-07-20 06:42:00,70.0,68.0,30.20,West,277,23.0,28.0,93,0.00,,,0.00,,2013-07-20 10:42:00,
2013-07-20 06:52:00,70.0,67.0,30.20,WNW,298,22.0,26.0,89,0.00,,,0.00,,2013-07-20 10:52:00,
2013-07-20 07:02:00,71.0,67.0,30.20,WNW,295,20.0,22.0,88,0.00,,,0.00,,2013-07-20 11:02:00,
2013-07-20 07:11:00,70.0,68.0,30.20,NNW,329,18.0,21.0,92,0.00,,,0.00,,2013-07-20 11:11:00,
2013-07-20 07:43:00,71.0,65.0,30.20,NNW,328,18.0,20.0,80,0.00,,,0.00,,2013-07-20 11:43:00,
2013-07-20 08:52:00,71.0,66.0,30.21,NW,324,17.0,19.0,84,0.00,,,0.00,,2013-07-20 12:52:00,
2013-07-20 09:22:00,72.0,68.0,30.22,NW,326,15.0,18.0,86,0.00,,,0.00,,2013-07-20 13:22:00,
2013-07-20 09:43:00,72.0,66.0,30.23,NW,315,14.0,16.0,82,0.00,,,0.00,,2013-07-20 13:43:00,
2013-07-20 09:53:00,71.0,66.0,30.22,NW,323,13.0,15.0,85,0.00,,,0.00,,2013-07-20 13:53:00,
2013-07-20 10:11:00,71.0,66.0,30.23,NW,315,7.0,10.0,85,0.00,,,0.00,,2013-07-20 14:11:00,
2013-07-20 10:22:00,72.0,68.0,30.23,North,8,5.0,10.0,86,0.00,,,0.00,,2013-07-20 14:22:00,
2013-07-20 10:32:00,72.0,67.0,30.23,NNW,346,5.0,8.0,85,0.00,,,0.00,,2013-07-20 14:32:00,
2013-07-20 10:43:00,73.0,68.0,30.23,NNW,328,4.0,8.0,85,0.00,,,0.00,,2013-07-20 14:43:00,
2013-07-20 10:53:00,73.0,69.0,30.24,NNW,342,4.0,6.0,86,0.00,,,0.00,,2013-07-20 14:53:00,
2013-07-20 11:01:00,73.0,69.0,30.24,NNW,335,3.0,6.0,88,0.00,,,0.00,,2013-07-20 15:01:00,
2013-07-20 11:11:00,73.0,70.0,30.24,North,4,1.0,4.0,89,0.00,,,0.00,,2013-07-20 15:11:00,
2013-07-20 11:22:00,73.0,69.0,30.23,North,349,2.0,4.0,87,0.00,,,0.00,,2013-07-20 15:22:00,
2013-07-20 11:33:00,74.0,70.0,30.24,NNW,338,1.0,4.0,86,0.00,,,0.00,,2013-07-20 15:33:00,
2013-07-20 11:44:00,74.0,71.0,30.23,NW,316,3.0,4.0,91,0.00,,,0.00,,2013-07-20 15:44:00,
2013-07-20 11:53:00,72.0,70.0,30.23,West,281,3.0,6.0,94,0.00,,,0.00,,2013-07-20 15:53:00,
2013-07-20 12:01:00,72.0,70.0,30.23,WNW,288,1.0,7.0,92,0.00,,,0.00,,2013-07-20 16:01:00,
2013-07-20 12:11:00,74.0,72.0,30.22,WSW,240,3.0,7.0,92,0.00,,,0.00,,2013-07-20 16:11:00,
2013-07-20 12:22:00,73.0,71.0,30.22,SSW,194,6.0,10.0,95,0.00,,,0.00,,2013-07-20 16:22:00,
2013-07-20 12:32:00,72.0,71.0,30.22,SSW,211,9.0,12.0,96,0.00,,,0.00,,2013-07-20 16:32:00,
2013-07-20 12:43:00,71.0,70.0,30.22,SW,214,7.0,11.0,96,0.00,,,0.00,,2013-07-20 16:43:00,
2013-07-20 12:52:00,71.0,70.0,30.22,WSW,254,11.0,14.0,97,0.00,,,0.00,,2013-07-20 16:52:00,
2013-07-20 13:02:00,71.0,70.0,30.22,West,276,11.0,13.0,97,0.00,,,0.00,,2013-07-20 17:02:00,
2013-07-20 13:11:00,71.0,70.0,30.21,SW,229,5.0,11.0,98,0.00,,,0.00,,2013-07-20 17:11:00,
2013-07-20 13:22:00,71.0,70.0,30.20,WSW,250,10.0,14.0,97,0.00,,,0.00,,2013-07-20 17:22:00,
2013-07-20 13:32:00,72.0,71.0,30.19,SW,223,9.0,17.0,97,0.00,,,0.00,,2013-07-20 17:32:00,
2013-07-20 13:43:00,72.0,71.0,30.20,WSW,249,9.0,14.0,96,0.00,,,0.00,,2013-07-20 17:43:00,
2013-07-20 13:53:00,71.0,70.0,30.19,SW,227,9.0,13.0,97,0.00,,,0.00,,2013-07-20 17:53:00,
2013-07-20 14:01:00,71.0,70.0,30.19,WSW,255,15.0,18.0,97,0.00,,,0.00,,2013-07-20 18:01:00,
2013-07-20 14:12:00,71.0,70.0,30.19,WNW,298,14.0,18.0,98,0.00,,,0.00,,2013-07-20 18:12:00,
2013-07-20 14:24:00,70.0,65.0,30.19,SW,226,16.0,24.0,84,0.18,,,0.18,,2013-07-20 18:24:00,
2013-07-20 14:36:00,70.0,69.0,30.18,SW,221,14.0,20.0,98,0.26,,,0.26,,2013-07-20 18:36:00,
2013-07-20 14:55:00,69.0,67.0,30.19,WNW,284,24.0,32.0,93,0.59,,,0.59,,2013-07-20 18:55:00,
2013-07-20 15:05:00,69.0,67.0,30.19,North,5,6.0,26.0,94,0.81,,,0.81,,2013-07-20 19:05:00,
2013-07-20 15:15:00,69.0,68.0,30.18,NNW,328,12.0,15.0,96,0.86,,,0.86,,2013-07-20 19:15:00,
2013-07-20 15:26:00,69.0,67.0,30.18,NW,321,13.0,25.0,93,0.87,,,1.05,,2013-07-20 19:26:00,
2013-07-20 15:35:00,69.0,68.0,30.17,NW,326,9.0,15.0,95,0.80,,,1.06,,2013-07-20 19:35:00,
2013-07-20 15:44:00,68.0,67.0,30.19,East,79,7.0,10.0,96,0.78,,,1.07,,2013-07-20 19:44:00,
2013-07-20 15:54:00,67.0,66.0,30.18,ENE,58,9.0,11.0,97,0.48,,,1.07,,2013-07-20 19:54:00,
2013-07-20 16:06:00,69.0,67.0,30.18,North,11,8.0,10.0,94,0.26,,,1.07,,2013-07-20 20:06:00,
2013-07-20 16:24:00,68.0,65.0,30.18,NE,41,8.0,10.0,91,0.02,,,1.07,,2013-07-20 20:24:00,
2013-07-20 16:33:00,68.0,66.0,30.18,NE,56,4.0,7.0,92,0.02,,,1.08,,2013-07-20 20:33:00,
2013-07-20 16:45:00,69.0,65.0,30.18,East,89,3.0,4.0,88,0.01,,,1.08,,2013-07-20 20:45:00,
2013-07-20 16:56:00,70.0,66.0,30.17,East,91,3.0,3.0,87,0.02,,,1.09,,2013-07-20 20:56:00,
2013-07-20 17:15:00,69.0,65.0,30.18,SE,139,4.0,5.0,88,0.02,,,1.09,,2013-07-20 21:15:00,
2013-07-20 17:27:00,69.0,67.0,30.18,South,184,2.0,4.0,93,0.02,,,1.09,,2013-07-20 21:27:00,
2013-07-20 17:34:00,69.0,66.0,30.18,SW,215,5.0,6.0,91,0.01,,,1.09,,2013-07-20 21:34:00,
2013-07-20 17:45:00,69.0,66.0,30.17,West,271,6.0,6.0,91,0.01,,,1.09,,2013-07-20 21:45:00,
2013-07-20 17:55:00,68.0,65.0,30.16,West,273,5.0,7.0,89,0.00,,,1.09,,2013-07-20 21:55:00,
2013-07-20 18:06:00,69.0,65.0,30.16,WNW,291,7.0,8.0,86,0.00,,,1.09,,2013-07-20 22:06:00,
2013-07-20 18:16:00,69.0,64.0,30.16,NW,309,7.0,8.0,83,0.00,,,1.09,,2013-07-20 22:16:00,
2013-07-20 18:34:00,70.0,63.0,30.15,NW,311,10.0,11.0,79,0.00,,,1.09,,2013-07-20 22:34:00,
2013-07-20 18:47:00,71.0,64.0,30.15,NW,323,11.0,12.0,79,0.00,,,1.09,,2013-07-20 22:47:00,
2013-07-20 18:55:00,71.0,66.0,30.15,NW,307,16.0,17.0,85,0.00,,,1.09,,2013-07-20 22:55:00,
2013-07-20 19:05:00,71.0,67.0,30.14,NW,308,15.0,16.0,87,0.00,,,1.09,,2013-07-20 23:05:00,
2013-07-20 19:17:00,71.0,66.0,30.15,WNW,302,13.0,17.0,84,0.00,,,1.09,,2013-07-20 23:17:00,
2013-07-20 19:28:00,71.0,63.0,30.14,WNW,298,15.0,17.0,77,0.00,,,1.09,,2013-07-20 23:28:00,
2013-07-20 19:37:00,71.0,65.0,30.14,WNW,300,12.0,16.0,82,0.00,,,1.09,,2013-07-20 23:37:00,
2013-07-20 19:44:00,71.0,67.0,30.15,WNW,288,17.0,18.0,86,0.00,,,1.09,,2013-07-20 23:44:00,
2013-07-20 19:55:00,70.0,66.0,30.14,WNW,291,14.0,17.0,88,0.00,,,1.09,,2013-07-20 23:55:00,
2013-07-20 20:07:00,70.0,66.0,30.15,WNW,284,15.0,17.0,88,0.00,,,1.09,,2013-07-21 00:07:00,
2013-07-20 20:17:00,70.0,66.0,30.15,West,277,12.0,16.0,87,0.00,,,1.09,,2013-07-21 00:17:00,
2013-07-20 20:24:00,70.0,66.0,30.15,West,277,14.0,15.0,86,0.00,,,1.09,,2013-07-21 00:24:00,
2013-07-20 20:55:00,70.0,67.0,30.16,WNW,293,12.0,13.0,89,0.00,,,1.09,,2013-07-21 00:55:00,
2013-07-20 21:06:00,70.0,63.0,30.17,WNW,287,13.0,14.0,78,0.00,,,1.09,,2013-07-21 01:06:00,
2013-07-20 21:12:00,71.0,63.0,30.16,WNW,285,16.0,17.0,77,0.00,,,1.09,,2013-07-21 01:12:00,
2013-07-20 21:27:00,71.0,63.0,30.17,West,280,14.0,17.0,77,0.00,,,1.09,,2013-07-21 01:27:00,
2013-07-20 21:36:00,71.0,64.0,30.17,WNW,283,12.0,14.0,78,0.00,,,1.09,,2013-07-21 01:36:00,
2013-07-20 21:46:00,-999.0,-99.9,30.18,West,278,10.0,13.0,-999,-99.99,,,-99.99,,2013-07-21 01:46:00,
2013-07-20 21:56:00,71.0,63.0,30.18,West,280,11.0,12.0,77,0.00,,,1.09,,2013-07-21 01:56:00,
2013-07-20 22:06:00,70.0,64.0,30.18,West,274,9.0,11.0,81,0.00,,,1.09,,2013-07-21 02:06:00,
2013-07-20 22:17:00,70.0,65.0,30.19,WNW,294,10.0,11.0,84,0.00,,,1.09,,2013-07-21 02:17:00,
2013-07-20 22:27:00,69.0,64.0,30.19,West,273,10.0,11.0,84,0.00,,,1.09,,2013-07-21 02:27:00,
2013-07-20 22:36:00,70.0,65.0,30.20,WNW,294,13.0,14.0,85,0.00,,,1.09,,2013-07-21 02:36:00,
2013-07-20 22:44:00,70.0,66.0,30.21,WNW,295,15.0,15.0,86,0.00,,,1.09,,2013-07-21 02:44:00,
2013-07-20 22:54:00,70.0,65.0,30.20,WNW,294,15.0,15.0,85,0.00,,,1.09,,2013-07-21 02:54:00,
2013-07-20 23:05:00,70.0,65.0,30.20,WNW,302,15.0,16.0,85,0.00,,,1.09,,2013-07-21 03:05:00,
2013-07-20 23:14:00,69.0,66.0,30.20,WNW,300,15.0,19.0,89,0.00,,,1.09,,2013-07-21 03:14:00,
2013-07-20 23:25:00,69.0,65.0,30.20,WNW,296,15.0,18.0,88,0.00,,,1.09,,2013-07-21 03:25:00,
2013-07-20 23:36:00,69.0,64.0,30.21,WNW,297,17.0,18.0,83,0.00,,,1.09,,2013-07-21 03:36:00,
2013-07-20 23:56:00,69.0,64.0,30.21,WNW,298,17.0,19.0,85,0.00,,,1.09,,2013-07-21 03:56:00,